Dades meteomassalio
 
Diari Summary for Octubre 16, 2018 Units:  English    Metric   Both
« Previous Day
Next Day »
Diari Semanal Mensual Anual Personalitzat
  Actual: Maxima: Minima: Mijana:
Temperatura: 18.3 °F TemperatureC °F 6.1 °F 11.8 °F
Rosada: 11.9 °F DewpointC °F 4.9 °F 8.9 °F
Humitat: 66 % Humidity % 63 % 83 %
Velocitat del vent: 0.0 mph WindSpeedKMH mph 0.0 mph 0 mph
Racha vent: 0.0 mph WindSpeedGustKMH mph - -
Vent:Calm - - North
Pressio: 1018.3 in PressurehPa in 1013.9 in -
Pluja: 0.3 in      
Historical Graphs
 
 
Tabular Data for Octubre 16, 2018
Time Temperature Dew Point Pressure Wind Wind Speed Wind Gust Humidity Rainfall Rate (Hourly) solar Conditions
TemperatureC °F DewpointC °F PressurehPa in Calm     Humidity % HourlyPrecipMM in SolarRadiationWatts/m^2 W/m2 Conditions
00:04 8.9 °F 7.0 °F 1014.0 in Calm     88 % 0.0 in 0.00 W/m2 RA
00:09 8.9 °F 7.0 °F 1014.1 in Calm     88 % 0.0 in 0.00 W/m2 CLR
00:14 8.9 °F 7.2 °F 1014.1 in Calm     89 % 0.0 in 0.00 W/m2 CLR
00:19 8.9 °F 7.2 °F 1014.0 in Calm     89 % 0.0 in 0.00 W/m2 CLR
00:24 8.9 °F 7.2 °F 1013.9 in Calm     89 % 0.0 in 0.00 W/m2 CLR
00:29 8.9 °F 7.2 °F 1014.0 in Calm     89 % 0.0 in 0.00 W/m2 CLR
00:34 8.9 °F 7.2 °F 1014.1 in Calm     89 % 0.0 in 0.00 W/m2 CLR
00:39 8.9 °F 7.2 °F 1014.1 in Calm     89 % 0.0 in 0.00 W/m2 CLR
00:44 8.9 °F 7.3 °F 1014.1 in Calm     90 % 0.0 in 0.00 W/m2 CLR
00:49 8.9 °F 7.2 °F 1014.1 in Calm     89 % 0.0 in 0.00 W/m2 CLR
00:54 8.9 °F 7.3 °F 1014.2 in Calm     90 % 0.0 in 0.00 W/m2 CLR
00:59 8.9 °F 7.3 °F 1014.1 in Calm     90 % 0.0 in 0.00 W/m2 CLR
01:04 8.9 °F 7.3 °F 1014.2 in Calm     90 % 0.0 in 0.00 W/m2 CLR
01:09 8.9 °F 7.3 °F 1014.3 in Calm     90 % 0.0 in 0.00 W/m2 CLR
01:14 8.9 °F 7.3 °F 1014.3 in Calm     90 % 0.0 in 0.00 W/m2 CLR
01:19 8.9 °F 7.3 °F 1014.3 in Calm     90 % 0.0 in 0.00 W/m2 CLR
01:24 8.9 °F 7.3 °F 1014.3 in Calm     90 % 0.0 in 0.00 W/m2 CLR
01:29 8.9 °F 7.3 °F 1014.3 in Calm     90 % 0.0 in 0.00 W/m2 CLR
01:34 8.9 °F 7.3 °F 1014.3 in Calm     90 % 0.0 in 0.00 W/m2 CLR
01:39 8.9 °F 7.3 °F 1014.4 in Calm     90 % 0.0 in 0.00 W/m2 CLR
01:44 8.9 °F 7.5 °F 1014.4 in Calm     91 % 0.0 in 0.00 W/m2 CLR
01:49 8.9 °F 7.5 °F 1014.3 in Calm     91 % 0.0 in 0.00 W/m2 CLR
01:54 8.9 °F 7.5 °F 1014.4 in Calm     91 % 0.0 in 0.00 W/m2 CLR
01:59 8.9 °F 7.5 °F 1014.3 in Calm     91 % 0.0 in 0.00 W/m2 CLR
02:04 8.9 °F 7.3 °F 1014.3 in Calm     90 % 0.0 in 0.00 W/m2 CLR
02:09 8.9 °F 7.5 °F 1014.4 in Calm     91 % 0.0 in 0.00 W/m2 CLR
02:14 8.9 °F 7.5 °F 1014.4 in Calm     91 % 0.0 in 0.00 W/m2 CLR
02:19 8.9 °F 7.5 °F 1014.5 in Calm     91 % 0.0 in 0.00 W/m2 CLR
02:24 8.9 °F 7.5 °F 1014.6 in Calm     91 % 0.0 in 0.00 W/m2 CLR
02:29 8.9 °F 7.5 °F 1014.5 in Calm     91 % 0.0 in 0.00 W/m2 CLR
02:34 8.3 °F 6.9 °F 1014.7 in Calm     91 % 0.0 in 0.00 W/m2 CLR
02:39 8.3 °F 6.9 °F 1014.7 in Calm     91 % 0.0 in 0.00 W/m2 CLR
02:44 8.3 °F 6.9 °F 1014.7 in Calm     91 % 0.0 in 0.00 W/m2 CLR
02:49 8.3 °F 6.9 °F 1014.6 in Calm     91 % 0.0 in 0.00 W/m2 CLR
02:54 8.3 °F 6.9 °F 1014.6 in Calm     91 % 0.0 in 0.00 W/m2 CLR
02:59 8.3 °F 6.9 °F 1014.7 in Calm     91 % 0.0 in 0.00 W/m2 CLR
03:04 8.3 °F 7.1 °F 1014.7 in Calm     92 % 0.0 in 0.00 W/m2 CLR
03:09 8.3 °F 7.1 °F 1014.8 in Calm     92 % 0.0 in 0.00 W/m2 CLR
03:14 8.3 °F 7.1 °F 1014.7 in Calm     92 % 0.0 in 0.00 W/m2 CLR
03:19 8.3 °F 6.9 °F 1014.7 in Calm     91 % 0.0 in 0.00 W/m2 CLR
03:24 8.3 °F 6.9 °F 1014.6 in Calm     91 % 0.0 in 0.00 W/m2 CLR
03:29 7.8 °F 6.6 °F 1014.6 in Calm     92 % 0.0 in 0.00 W/m2 CLR
03:34 7.8 °F 6.6 °F 1014.6 in Calm     92 % 0.0 in 0.00 W/m2 CLR
03:39 7.8 °F 6.6 °F 1014.6 in Calm     92 % 0.0 in 0.00 W/m2 CLR
03:44 7.8 °F 6.6 °F 1014.6 in Calm     92 % 0.0 in 0.00 W/m2 CLR
03:49 7.8 °F 6.6 °F 1014.6 in Calm     92 % 0.0 in 0.00 W/m2 CLR
03:54 7.8 °F 6.6 °F 1014.7 in Calm     92 % 0.0 in 0.00 W/m2 CLR
03:59 7.8 °F 6.6 °F 1014.6 in Calm     92 % 0.0 in 0.00 W/m2 CLR
04:04 7.8 °F 6.6 °F 1014.6 in Calm     92 % 0.0 in 0.00 W/m2 CLR
04:09 7.8 °F 6.6 °F 1014.5 in Calm     92 % 0.0 in 0.00 W/m2 CLR
04:14 7.8 °F 6.6 °F 1014.6 in Calm     92 % 0.0 in 0.00 W/m2 CLR
04:19 7.8 °F 6.6 °F 1014.5 in Calm     92 % 0.0 in 0.00 W/m2 CLR
04:24 7.8 °F 6.6 °F 1014.5 in Calm     92 % 0.0 in 0.00 W/m2 CLR
04:29 7.8 °F 6.6 °F 1014.5 in Calm     92 % 0.0 in 0.00 W/m2 CLR
04:34 7.8 °F 6.6 °F 1014.5 in Calm     92 % 0.0 in 0.00 W/m2 CLR
04:39 7.8 °F 6.6 °F 1014.7 in Calm     92 % 0.0 in 0.00 W/m2 CLR
04:44 7.8 °F 6.6 °F 1014.6 in Calm     92 % 0.0 in 0.00 W/m2 CLR
04:49 7.8 °F 6.6 °F 1014.6 in Calm     92 % 0.0 in 0.00 W/m2 CLR
04:54 7.8 °F 6.6 °F 1014.5 in Calm     92 % 0.0 in 0.00 W/m2 CLR
04:59 7.8 °F 6.6 °F 1014.5 in Calm     92 % 0.0 in 0.00 W/m2 CLR
05:04 7.8 °F 6.6 °F 1014.5 in Calm     92 % 0.0 in 0.00 W/m2 CLR
05:09 7.8 °F 6.6 °F 1014.6 in Calm     92 % 0.0 in 0.00 W/m2 CLR
05:14 7.2 °F 6.0 °F 1014.7 in Calm     92 % 0.0 in 0.00 W/m2 CLR
05:19 7.2 °F 6.0 °F 1014.8 in Calm     92 % 0.0 in 0.00 W/m2 CLR
05:24 7.2 °F 6.0 °F 1014.8 in Calm     92 % 0.0 in 0.00 W/m2 CLR
05:29 7.2 °F 6.0 °F 1014.9 in Calm     92 % 0.0 in 0.00 W/m2 CLR
05:34 7.2 °F 6.0 °F 1014.9 in Calm     92 % 0.0 in 0.00 W/m2 CLR
05:39 7.2 °F 6.0 °F 1015.0 in Calm     92 % 0.0 in 0.00 W/m2 CLR
05:44 7.2 °F 6.2 °F 1015.1 in Calm     93 % 0.0 in 0.00 W/m2 CLR
05:49 7.2 °F 6.2 °F 1015.2 in Calm     93 % 0.0 in 0.00 W/m2 CLR
05:54 7.2 °F 6.0 °F 1015.3 in Calm     92 % 0.0 in 0.00 W/m2 CLR
05:59 7.2 °F 6.0 °F 1015.5 in Calm     92 % 0.0 in 0.00 W/m2 CLR
06:04 7.2 °F 6.2 °F 1015.5 in Calm     93 % 0.0 in 0.00 W/m2 CLR
06:09 7.2 °F 6.2 °F 1015.5 in Calm     93 % 0.0 in 0.00 W/m2 CLR
06:14 7.2 °F 6.0 °F 1015.5 in Calm     92 % 0.0 in 0.00 W/m2 CLR
06:19 7.8 °F 6.6 °F 1015.5 in Calm     92 % 0.0 in 0.00 W/m2 CLR
06:24 7.8 °F 6.6 °F 1015.6 in Calm     92 % 0.0 in 0.00 W/m2 CLR
06:29 7.8 °F 6.6 °F 1015.6 in Calm     92 % 0.0 in 0.00 W/m2 CLR
06:34 7.8 °F 6.7 °F 1015.6 in Calm     93 % 0.0 in 0.00 W/m2 CLR
06:39 7.2 °F 6.2 °F 1015.7 in Calm     93 % 0.0 in 0.00 W/m2 CLR
06:44 7.2 °F 6.0 °F 1015.8 in Calm     92 % 0.0 in 0.00 W/m2 CLR
06:49 7.2 °F 6.0 °F 1015.8 in Calm     92 % 0.0 in 0.00 W/m2 CLR
06:54 7.2 °F 6.0 °F 1015.8 in Calm     92 % 0.0 in 0.00 W/m2 CLR
06:59 7.2 °F 6.0 °F 1015.9 in Calm     92 % 0.0 in 0.00 W/m2 CLR
07:04 6.7 °F 5.4 °F 1015.9 in Calm     92 % 0.0 in 0.00 W/m2 CLR
07:09 6.7 °F 5.6 °F 1015.9 in Calm     93 % 0.0 in 0.00 W/m2 CLR
07:14 6.7 °F 5.6 °F 1015.9 in Calm     93 % 0.0 in 0.00 W/m2 CLR
07:19 7.2 °F 6.2 °F 1016.0 in Calm     93 % 0.0 in 0.00 W/m2 CLR
07:24 6.7 °F 5.4 °F 1016.0 in Calm     92 % 0.0 in 0.00 W/m2 CLR
07:29 6.7 °F 5.4 °F 1016.0 in Calm     92 % 0.0 in 0.00 W/m2 CLR
07:34 6.7 °F 5.4 °F 1016.2 in Calm     92 % 0.0 in 0.00 W/m2 CLR
07:39 6.7 °F 5.6 °F 1016.3 in Calm     93 % 0.0 in 0.00 W/m2 CLR
07:44 6.7 °F 5.6 °F 1016.4 in Calm     93 % 0.0 in 0.00 W/m2 CLR
07:49 6.7 °F 5.6 °F 1016.4 in Calm     93 % 0.3 in 0.00 W/m2 RA
07:54 6.1 °F 4.9 °F 1016.5 in Calm     92 % 0.3 in 0.00 W/m2
07:59 6.1 °F 4.9 °F 1016.5 in Calm     92 % 0.3 in 0.00 W/m2 CLR
08:04 6.1 °F 5.1 °F 1016.6 in Calm     93 % 0.3 in 0.00 W/m2 OVC
08:09 6.1 °F 5.1 °F 1016.7 in Calm     93 % 0.3 in 0.00 W/m2 OVC
08:14 6.1 °F 5.1 °F 1016.8 in Calm     93 % 0.3 in 0.00 W/m2 OVC
08:19 6.1 °F 5.1 °F 1016.9 in Calm     93 % 0.3 in 5.00 W/m2 OVC
08:24 6.1 °F 5.1 °F 1017.0 in Calm     93 % 0.3 in 7.00 W/m2 BKN
08:29 6.1 °F 5.1 °F 1017.1 in Calm     93 % 0.3 in 11.00 W/m2 BKN
08:34 6.1 °F 5.1 °F 1017.2 in Calm     93 % 0.3 in 11.00 W/m2 BKN
08:39 6.7 °F 5.6 °F 1017.3 in Calm     93 % 0.3 in 12.00 W/m2 BKN
08:44 6.7 °F 5.6 °F 1017.5 in Calm     93 % 0.3 in 14.00 W/m2 BKN
08:49 6.7 °F 5.6 °F 1017.5 in Calm     93 % 0.0 in 16.00 W/m2 BKN
08:54 6.7 °F 5.6 °F 1017.6 in Calm     93 % 0.0 in 21.00 W/m2 BKN
08:59 6.7 °F 5.6 °F 1017.7 in Calm     93 % 0.0 in 49.00 W/m2 SCT
09:04 7.2 °F 6.2 °F 1017.8 in Calm     93 % 0.0 in 65.00 W/m2 SCT
09:09 7.2 °F 6.2 °F 1017.8 in Calm     93 % 0.0 in 70.00 W/m2 FEW
09:14 7.2 °F 6.2 °F 1017.8 in Calm     93 % 0.0 in 111.00 W/m2 FEW
09:19 7.2 °F 6.2 °F 1017.9 in Calm     93 % 0.0 in 127.00 W/m2 CLR
09:24 7.8 °F 6.7 °F 1017.9 in Calm     93 % 0.0 in 142.00 W/m2 CLR
09:29 7.8 °F 6.7 °F 1018.0 in Calm     93 % 0.0 in 155.00 W/m2 CLR
09:34 8.3 °F 7.3 °F 1018.1 in Calm     93 % 0.0 in 130.00 W/m2 CLR
09:39 8.9 °F 7.8 °F 1018.1 in Calm     93 % 0.0 in 192.00 W/m2 CLR
09:44 9.4 °F 8.4 °F 1018.3 in Calm     93 % 0.0 in 207.00 W/m2 CLR
09:49 9.4 °F 8.4 °F 1018.3 in Calm     93 % 0.0 in 223.00 W/m2 CLR
09:54 9.4 °F 8.2 °F 1018.4 in Calm     92 % 0.0 in 232.00 W/m2 CLR
09:59 10.0 °F 8.8 °F 1018.4 in Calm     92 % 0.0 in 251.00 W/m2 CLR
10:04 10.6 °F 9.2 °F 1018.4 in Calm     91 % 0.0 in 265.00 W/m2 CLR
10:09 10.6 °F 9.2 °F 1018.4 in Calm     91 % 0.0 in 279.00 W/m2 CLR
10:14 11.1 °F 9.6 °F 1018.5 in Calm     90 % 0.0 in 295.00 W/m2 CLR
10:19 11.1 °F 9.6 °F 1018.6 in Calm     90 % 0.0 in 315.00 W/m2 CLR
10:24 11.1 °F 9.6 °F 1018.6 in Calm     90 % 0.0 in 336.00 W/m2 CLR
10:29 11.1 °F 9.2 °F 1018.5 in Calm     88 % 0.0 in 352.00 W/m2 CLR
10:34 11.1 °F 9.1 °F 1018.5 in Calm     87 % 0.0 in 362.00 W/m2 CLR
10:39 11.1 °F 8.7 °F 1018.6 in Calm     85 % 0.0 in 380.00 W/m2 CLR
10:44 11.7 °F 9.1 °F 1018.7 in Calm     84 % 0.0 in 396.00 W/m2 CLR
10:49 12.2 °F 9.6 °F 1018.6 in Calm     84 % 0.0 in 406.00 W/m2 CLR
10:54 12.8 °F 10.2 °F 1018.6 in Calm     84 % 0.0 in 413.00 W/m2 CLR
10:59 12.8 °F 9.8 °F 1018.6 in Calm     82 % 0.0 in 425.00 W/m2 CLR
11:04 12.8 °F 9.6 °F 1018.7 in Calm     81 % 0.0 in 438.00 W/m2 CLR
11:09 13.3 °F 10.2 °F 1018.7 in Calm     81 % 0.0 in 454.00 W/m2 CLR
11:14 13.3 °F 9.9 °F 1018.8 in Calm     80 % 0.0 in 459.00 W/m2 CLR
11:19 13.9 °F 10.5 °F 1018.7 in Calm     80 % 0.0 in 471.00 W/m2 CLR
11:24 14.4 °F 10.7 °F 1018.8 in Calm     78 % 0.0 in 483.00 W/m2 CLR
11:29 14.4 °F 10.4 °F 1018.7 in Calm     77 % 0.0 in 496.00 W/m2 CLR
11:34 15.0 °F 11.0 °F 1018.6 in Calm     77 % 0.0 in 510.00 W/m2 CLR
11:39 15.0 °F 10.8 °F 1018.5 in Calm     76 % 0.0 in 519.00 W/m2 CLR
11:44 15.0 °F 11.0 °F 1018.5 in Calm     77 % 0.0 in 527.00 W/m2 CLR
11:49 15.6 °F 11.2 °F 1018.5 in Calm     75 % 0.0 in 536.00 W/m2 CLR
11:54 16.1 °F 11.9 °F 1018.6 in Calm     76 % 0.0 in 552.00 W/m2 CLR
11:59 16.1 °F 12.1 °F 1018.7 in Calm     77 % 0.0 in 577.00 W/m2 CLR
12:04 16.1 °F 11.7 °F 1018.7 in Calm     75 % 0.0 in 334.00 W/m2 CLR
12:09 16.1 °F 11.7 °F 1018.7 in Calm     75 % 0.0 in 318.00 W/m2 CLR
12:14 16.7 °F 12.2 °F 1018.7 in Calm     75 % 0.0 in 345.00 W/m2 CLR
12:19 16.7 °F 12.0 °F 1018.7 in Calm     74 % 0.0 in 251.00 W/m2 CLR
12:24 16.7 °F 12.2 °F 1018.7 in Calm     75 % 0.0 in 246.00 W/m2 CLR
12:29 16.1 °F 11.7 °F 1018.8 in Calm     75 % 0.0 in 334.00 W/m2 CLR
12:34 16.7 °F 12.2 °F 1018.8 in Calm     75 % 0.0 in 482.00 W/m2 CLR
12:39 17.2 °F 12.7 °F 1018.8 in Calm     75 % 0.0 in 411.00 W/m2 CLR
12:44 17.2 °F 13.2 °F 1018.7 in Calm     77 % 0.0 in 758.00 W/m2 CLR
12:49 17.2 °F 12.7 °F 1018.8 in Calm     75 % 0.0 in 227.00 W/m2 CLR
12:54 17.2 °F 12.6 °F 1018.8 in Calm     74 % 0.0 in 206.00 W/m2 CLR
12:59 17.2 °F 12.7 °F 1018.9 in Calm     75 % 0.0 in 673.00 W/m2 CLR
13:04 17.2 °F 12.3 °F 1018.8 in Calm     73 % 0.0 in 761.00 W/m2 CLR
13:09 17.8 °F 12.7 °F 1018.8 in Calm     72 % 0.0 in 751.00 W/m2 CLR
13:14 18.3 °F 13.0 °F 1018.7 in Calm     71 % 0.0 in 751.00 W/m2 CLR
13:19 18.9 °F 13.5 °F 1018.7 in Calm     71 % 0.0 in 765.00 W/m2 CLR
13:24 18.3 °F 12.6 °F 1018.7 in Calm     69 % 0.0 in 501.00 W/m2 CLR
13:29 17.8 °F 12.2 °F 1018.6 in Calm     70 % 0.0 in 499.00 W/m2 CLR
13:34 17.8 °F 12.2 °F 1018.6 in Calm     70 % 0.0 in 570.00 W/m2 CLR
13:39 17.8 °F 12.0 °F 1018.5 in Calm     69 % 0.0 in 348.00 W/m2 CLR
13:44 18.3 °F 12.6 °F 1018.5 in Calm     69 % 0.0 in 267.00 W/m2 CLR
13:49 18.3 °F 12.3 °F 1018.3 in Calm     68 % 0.0 in 209.00 W/m2 CLR
13:54 17.8 °F 12.2 °F 1018.3 in Calm     70 % 0.0 in 223.00 W/m2 CLR
13:59 17.8 °F 12.2 °F 1018.3 in Calm     70 % 0.0 in 274.00 W/m2 CLR
14:04 17.8 °F 12.7 °F 1018.2 in Calm     72 % 0.0 in 274.00 W/m2 CLR
14:09 17.8 °F 12.7 °F 1018.2 in Calm     72 % 0.0 in 281.00 W/m2 CLR
14:14 17.8 °F 12.4 °F 1018.2 in Calm     71 % 0.0 in 285.00 W/m2 CLR
14:19 17.8 °F 12.4 °F 1018.2 in Calm     71 % 0.0 in 304.00 W/m2 CLR
14:24 17.8 °F 12.4 °F 1018.2 in Calm     71 % 0.0 in 396.00 W/m2 CLR
14:29 18.3 °F 13.0 °F 1018.2 in Calm     71 % 0.0 in 874.00 W/m2 CLR
14:34 18.9 °F 13.5 °F 1018.2 in Calm     71 % 0.0 in 468.00 W/m2 CLR
14:39 18.9 °F 13.1 °F 1018.2 in Calm     69 % 0.0 in 438.00 W/m2 CLR
14:44 18.9 °F 13.1 °F 1018.2 in Calm     69 % 0.0 in 394.00 W/m2 CLR
14:49 18.3 °F 12.3 °F 1018.2 in Calm     68 % 0.0 in 323.00 W/m2 CLR
14:54 18.3 °F 12.3 °F 1018.2 in Calm     68 % 0.0 in 360.00 W/m2 CLR
14:59 18.3 °F 12.6 °F 1018.2 in Calm     69 % 0.0 in 327.00 W/m2 CLR
15:04 18.3 °F 12.6 °F 1018.2 in Calm     69 % 0.0 in 336.00 W/m2 CLR
15:09 18.3 °F 12.3 °F 1018.1 in Calm     68 % 0.0 in 320.00 W/m2 CLR
15:14 18.9 °F 12.4 °F 1018.0 in Calm     66 % 0.0 in 297.00 W/m2 CLR
15:19 18.9 °F 12.8 °F 1018.1 in Calm     68 % 0.0 in 304.00 W/m2 CLR
15:24 18.9 °F 13.3 °F 1018.1 in Calm     70 % 0.0 in 302.00 W/m2 CLR
15:29 18.9 °F 12.6 °F 1018.1 in Calm     67 % 0.0 in 301.00 W/m2 CLR
15:34 18.9 °F 12.6 °F 1018.1 in Calm     67 % 0.0 in 272.00 W/m2 CLR
15:39 18.9 °F 12.6 °F 1018.0 in Calm     67 % 0.0 in 264.00 W/m2 CLR
15:44 18.9 °F 12.6 °F 1018.0 in Calm     67 % 0.0 in 239.00 W/m2 CLR
15:49 18.9 °F 12.6 °F 1018.1 in Calm     67 % 0.0 in 230.00 W/m2 CLR
15:54 18.9 °F 12.4 °F 1018.0 in Calm     66 % 0.0 in 227.00 W/m2 CLR
15:59 18.9 °F 12.4 °F 1018.0 in Calm     66 % 0.0 in 218.00 W/m2 CLR
16:04 18.9 °F 12.4 °F 1018.0 in Calm     66 % 0.0 in 221.00 W/m2 CLR
16:09 18.9 °F 12.4 °F 1018.1 in Calm     66 % 0.0 in 209.00 W/m2 CLR
16:14 18.9 °F 12.6 °F 1018.1 in Calm     67 % 0.0 in 207.00 W/m2 CLR
16:19 18.9 °F 12.6 °F 1018.1 in Calm     67 % 0.0 in 216.00 W/m2 CLR
16:24 18.9 °F 12.4 °F 1018.2 in Calm     66 % 0.0 in 218.00 W/m2 CLR
16:29 18.9 °F 12.4 °F 1018.2 in Calm     66 % 0.0 in 234.00 W/m2 CLR
16:34 18.9 °F 12.4 °F 1018.2 in Calm     66 % 0.0 in 246.00 W/m2 CLR
16:39 18.9 °F 12.2 °F 1018.2 in Calm     65 % 0.0 in 617.00 W/m2 CLR
16:44 19.4 °F 12.7 °F 1018.2 in Calm     65 % 0.0 in 612.00 W/m2 CLR
16:49 19.4 °F 12.4 °F 1018.2 in Calm     64 % 0.0 in 459.00 W/m2 CLR
16:54 20.0 °F 12.7 °F 1018.2 in Calm     63 % 0.0 in 213.00 W/m2 CLR
16:59 20.0 °F 12.7 °F 1018.1 in Calm     63 % 0.0 in 165.00 W/m2 CLR
17:04 20.0 °F 12.7 °F 1018.1 in Calm     63 % 0.0 in 146.00 W/m2 CLR
17:09 19.4 °F 12.4 °F 1018.1 in Calm     64 % 0.0 in 118.00 W/m2 CLR
17:14 19.4 °F 12.4 °F 1018.1 in Calm     64 % 0.0 in 125.00 W/m2 CLR
17:19 18.9 °F 11.9 °F 1018.1 in Calm     64 % 0.0 in 97.00 W/m2 CLR
17:24 18.9 °F 12.4 °F 1018.2 in Calm     66 % 0.0 in 95.00 W/m2 CLR
17:29 18.9 °F 12.4 °F 1018.3 in Calm     66 % 0.0 in 162.00 W/m2 CLR
17:34 18.9 °F 12.4 °F 1018.3 in Calm     66 % 0.0 in 127.00 W/m2 CLR
17:39 18.9 °F 12.6 °F 1018.3 in Calm     67 % 0.0 in 118.00 W/m2 CLR
17:44 18.3 °F 11.9 °F 1018.3 in Calm     66 % 0.0 in 100.00 W/m2 CLR
17:49 18.3 °F 11.6 °F 1018.2 in Calm     65 % 0.0 in 84.00 W/m2 CLR
17:54 18.3 °F 11.6 °F 1018.3 in Calm     65 % 0.0 in 81.00 W/m2 CLR
17:59 18.3 °F 11.9 °F 1018.3 in Calm     66 % 0.0 in 76.00 W/m2 FEW
Lo Temps de Massalio
Compliments of Weather Underground - 1 mb